Location: Banff
(51.1667°N, 115.5667°W)
Time: 16:18:16
(UTC+00:00)

Vanguard 1 - Visible Passes

Search period start: 26 November 2020 00:00
Search period end: 06 December 2020 00:00
Orbit: 650 x 3833 km, 34.2° (Epoch: 26 November)

Date Brightness Start Highest point End Pass type
(mag) Time Alt. Az. Time Alt. Az. Time Alt. Az.
26 Nov 12.8 11:58:17 10° SSE 11:59:35 10° SE 12:00:59 10° SE visible
26 Nov 12.5 14:11:17 10° SW 14:18:11 29° SSE 14:29:09 10° ESE visible
27 Nov 12.6 12:16:07 10° S 12:19:40 14° SE 12:24:08 10° ESE visible
27 Nov 12.5 14:31:33 10° SW 14:38:39 31° SSE 14:50:08 10° ESE visible
28 Nov 12.4 12:35:26 10° S 12:39:52 18° SSE 12:45:52 10° ESE visible
29 Nov 12.3 12:55:13 10° SSW 13:00:09 21° SSE 13:07:12 10° ESE visible
30 Nov 12.2 13:15:17 10° SSW 13:20:32 23° SSE 13:28:17 10° ESE visible
01 Dec 12.2 13:35:33 10° SW 13:40:59 25° SSE 13:49:12 10° ESE visible
02 Dec 12.2 11:41:11 12° SSE 11:42:33 13° SSE 11:45:40 10° SE visible
02 Dec 12.2 13:55:57 10° SW 14:01:31 25° S 14:09:57 10° SE visible
03 Dec 12.0 12:01:06 14° S 12:02:52 16° SSE 12:07:08 10° ESE visible
03 Dec 12.2 14:16:30 10° SW 14:22:05 24° S 14:30:31 10° SE visible
04 Dec 11.9 12:21:01 15° S 12:23:16 18° SSE 12:28:13 10° SE visible
04 Dec 12.3 14:37:12 10° SW 14:42:42 22° S 14:50:51 10° SE visible
05 Dec 11.8 12:40:54 14° SSW 12:43:43 19° SSE 12:49:04 10° SE visible
